This is the latest recevied weather packets stored in our database for station/object SV9TNF-55. If no packets are shown the sender has not sent any weather packets the latest 10 day(s).
| Time | Temp. | Humidity | Pressure | Rain* | Wind** | Luminosity | Snow |
|---|---|---|---|---|---|---|---|
| 1788076014 | 23.89° C | 33% | 1016.5 hPa | 0 mm | 1.79 m/s, 337° | - | - |
| 1788075414 | 24.44° C | 31% | 1016.4 hPa | 0 mm | 2.24 m/s, 337° | - | - |
| 1788074813 | 24.44° C | 27% | 1016.4 hPa | 0 mm | 2.68 m/s, 337° | - | - |
| 1788074213 | 25° C | 21% | 1016.2 hPa | 0 mm | 2.68 m/s, 315° | - | - |
| 1788073612 | 25° C | 19% | 1016.2 hPa | 0 mm | 2.24 m/s, 315° | - | - |
| 1788073012 | 24.44° C | 25% | 1016.1 hPa | 0 mm | 2.24 m/s, 292° | - | - |
| 1788072413 | 23.89° C | 34% | 1016.1 hPa | 0 mm | 3.13 m/s, 292° | - | - |
| 1788071812 | 23.33° C | 39% | 1016 hPa | 0 mm | 3.58 m/s, 315° | - | - |
| 1788071212 | 23.33° C | 48% | 1015.7 hPa | 0 mm | 0.89 m/s, 225° | - | - |
| 1788070612 | 22.22° C | 52% | 1016 hPa | 0 mm | 0 m/s | - | - |
| 1788070012 | 22.22° C | 53% | 1015.9 hPa | 0 mm | 0.45 m/s, 180° | - | - |
| 1788069412 | 21.67° C | 51% | 1015.9 hPa | 0 mm | 0.89 m/s, 292° | - | - |
| 1788068811 | 21.67° C | 51% | 1015.9 hPa | 0 mm | 0.89 m/s, 292° | - | - |
| 1788068211 | 21.67° C | 49% | 1015.9 hPa | 0 mm | 0.89 m/s, 315° | - | - |
| 1788067612 | 21.67° C | 49% | 1016.1 hPa | 0 mm | 1.34 m/s, 292° | - | - |
| 1788067012 | 21.11° C | 49% | 1016.5 hPa | 0 mm | 1.34 m/s, 270° | - | - |
| 1788066411 | 21.11° C | 45% | 1016.5 hPa | 0 mm | 0.45 m/s, 270° | - | - |
| 1788065811 | 21.11° C | 45% | 1016.2 hPa | 0 mm | 0.45 m/s, 292° | - | - |
| 1788065211 | 21.11° C | 44% | 1016.1 hPa | 0 mm | 0.89 m/s, 270° | - | - |
| 1788064611 | 20.56° C | 39% | 1016.2 hPa | 0 mm | 0.45 m/s, 270° | - | - |
| 1788064011 | 21.11° C | 31% | 1016.3 hPa | 0 mm | 0.89 m/s, 292° | - | - |
| 1788063411 | 21.11° C | 31% | 1016.3 hPa | 0 mm | 0.89 m/s, 292° | - | - |
| 1788062811 | 20.56° C | 30% | 1016.3 hPa | 0 mm | 0.45 m/s, 225° | - | - |
| 1788062211 | 21.11° C | 29% | 1016.3 hPa | 0 mm | 0.89 m/s, 135° | - | - |
| 1788061611 | 20.56° C | 29% | 1016.3 hPa | 0 mm | 0.45 m/s, 180° | - | - |
* Rain latest hour (hover to see other rain measurements)
** Current wind speed in m/s (hover to see current wind gust speed)